Weather reports worldwide

Advertisment
Springfield, vt, United States of America (2074072): temperature & dewpoint: 09.09.2019 04:00:00 - 15.09.2019 04:00:00 (EDT)Springfield, vt, United States of America (2074072): wind speed: 09.09.2019 04:00:00 - 15.09.2019 04:00:00 (EDT)Springfield, vt, United States of America (2074072): wind direction: 09.09.2019 04:00:00 - 15.09.2019 04:00:00 (EDT)Springfield, vt, United States of America (2074072): reduced air pressure: 09.09.2019 04:00:00 - 15.09.2019 04:00:00 (EDT)Springfield, vt, United States of America (2074072): visibility: 09.09.2019 04:00:00 - 15.09.2019 04:00:00 (EDT)Springfield, vt, United States of America (2074072): precipitation: 09.09.2019 04:00:00 - 15.09.2019 04:00:00 (EDT)
Date & Time tt [°C] td [°C] ff [km/h] ff [kn] dd ppp [hPa] vv [km] rr [mm]
15.09.2019 04:00:00 13,3 12,8 0 0 N 1020,5 0,4 -
15.09.2019 03:00:00 13,3 13,3 0 0 N 1020,5 0,4 -
15.09.2019 02:00:00 13,9 13,3 0 0 N 1020,6 0,4 -
15.09.2019 01:00:00 13,9 13,3 0 0 N 1020,8 11 -
15.09.2019 00:00:00 13,9 13,3 0 0 N 1020,6 11 0,0
14.09.2019 23:00:00 13,9 13,3 5 3 W 1020,8 16 -
14.09.2019 22:00:00 14,4 13,3 0 0 N 1021,2 16 -
14.09.2019 21:00:00 16,1 14,4 0 0 N 1021,2 16 -
14.09.2019 20:00:00 16,7 15,0 0 0 N 1021,0 16 -
14.09.2019 19:00:00 17,2 14,4 9 5 SSE 1021,0 16 -
14.09.2019 18:00:00 16,7 14,4 5 3 SSE 1021,1 16 -
14.09.2019 17:00:00 16,7 13,9 8 4 SSE 1021,5 16 -
14.09.2019 16:00:00 16,1 13,9 13 7 SSE 1021,8 16 -
14.09.2019 15:00:00 16,1 13,3 11 6 SSE 1022,5 16 -
14.09.2019 14:00:00 16,1 12,8 11 6 SSE 1023,2 16 -
14.09.2019 13:00:00 15,0 11,7 16 9 SSE 1024,0 16 0,0
14.09.2019 12:00:00 13,9 11,1 5 3 SSE 1024,9 16 0,0
14.09.2019 11:00:00 13,3 10,6 11 6 SSE 1025,4 16 0,0
14.09.2019 10:00:00 12,2 8,9 8 4 - 1026,3 16 -
14.09.2019 09:00:00 11,7 8,3 5 3 - 1026,7 16 -
14.09.2019 08:00:00 11,1 7,8 9 5 SSE 1027,2 16 -
14.09.2019 07:00:00 11,1 7,2 9 5 SE 1027,7 16 -
14.09.2019 06:00:00 11,1 7,2 13 7 S 1027,5 16 -
14.09.2019 05:00:00 10,6 6,7 9 5 SSE 1027,7 16 -
14.09.2019 04:00:00 10,6 6,7 11 6 S 1028,3 16 -
14.09.2019 03:00:00 10,6 6,1 9 5 S 1029,0 16 -
14.09.2019 02:00:00 10,0 6,1 9 5 S 1029,9 16 -
14.09.2019 01:00:00 9,4 6,7 0 0 N 1030,5 16 -
14.09.2019 00:00:00 7,8 6,1 0 0 N 1030,5 16 -
13.09.2019 23:00:00 8,3 6,7 0 0 N 1030,7 16 -
13.09.2019 22:00:00 8,9 7,2 0 0 N 1030,9 16 -
13.09.2019 21:00:00 11,1 7,8 0 0 N 1030,8 16 -
13.09.2019 20:00:00 12,8 8,3 0 0 N 1030,8 16 -
13.09.2019 19:00:00 16,1 6,1 5 3 SSE 1031,0 16 -
13.09.2019 18:00:00 18,3 6,1 13 7 S 1031,2 16 -
13.09.2019 17:00:00 18,9 5,0 13 7 S 1031,4 16 -
13.09.2019 16:00:00 19,4 5,0 16 9 S 1031,7 16 -
13.09.2019 15:00:00 18,9 5,0 15 8 SSE 1032,1 16 -
13.09.2019 14:00:00 18,3 5,6 - - - 1032,5 16 -
13.09.2019 13:00:00 18,3 5,6 11 6 ESE 1033,0 16 -
13.09.2019 12:00:00 17,2 6,1 16 9 SSE 1033,5 16 -
13.09.2019 11:00:00 15,6 7,2 8 4 - 1033,8 16 -
13.09.2019 10:00:00 13,3 7,2 0 0 N 1034,3 16 -
13.09.2019 09:00:00 8,9 6,7 0 0 N 1034,2 16 -
13.09.2019 08:00:00 6,7 6,1 0 0 N 1033,5 4,8 -
13.09.2019 07:00:00 4,4 3,3 0 0 N 1032,4 0,4 -
13.09.2019 06:00:00 4,4 3,3 0 0 N 1031,6 16 -
13.09.2019 05:00:00 5,0 3,9 0 0 N 1030,9 16 -
13.09.2019 04:00:00 5,6 4,4 0 0 N 1030,3 16 -
13.09.2019 03:00:00 6,1 5,0 0 0 N 1029,5 16 -
13.09.2019 02:00:00 6,7 5,6 0 0 N 1029,2 16 -
13.09.2019 01:00:00 7,8 6,1 0 0 N 1028,9 16 -
13.09.2019 00:00:00 8,3 7,2 0 0 N 1028,2 16 -
12.09.2019 23:00:00 8,9 7,8 0 0 N 1027,9 16 -
12.09.2019 22:00:00 10,6 8,3 0 0 N 1027,5 16 -
12.09.2019 21:00:00 11,7 8,9 0 0 N 1026,5 16 -
12.09.2019 20:00:00 13,9 8,3 5 3 - 1025,9 16 -
12.09.2019 19:00:00 16,7 7,8 0 0 N 1025,0 16 -
12.09.2019 18:00:00 18,3 7,8 9 5 N 1024,1 16 -
12.09.2019 17:00:00 18,9 8,9 11 6 - 1023,2 16 -
12.09.2019 16:00:00 18,9 8,9 8 4 - 1022,5 16 -
12.09.2019 15:00:00 17,8 9,4 8 4 - 1022,2 16 -
12.09.2019 14:00:00 17,2 11,1 16 9 N 1022,4 16 0,3
12.09.2019 13:00:00 14,4 11,7 8 4 - 1022,8 16 0,3
12.09.2019 12:00:00 14,4 12,2 8 4 NNE 1022,7 16 0,3
12.09.2019 11:00:00 13,9 11,7 0 0 N 1022,7 16 0,3
12.09.2019 10:00:00 13,9 11,1 0 0 N 1022,4 10 1,0
12.09.2019 09:00:00 15,0 11,7 5 3 NNE 1021,5 16 0,3
12.09.2019 08:00:00 16,1 11,1 8 4 - 1020,5 16 -
12.09.2019 07:00:00 16,7 11,7 9 5 - 1019,7 16 -
12.09.2019 06:00:00 17,2 12,2 13 7 N 1018,9 16 -
12.09.2019 05:00:00 17,8 13,3 0 0 N 1017,9 16 -
12.09.2019 04:00:00 18,3 13,3 8 4 - 1017,7 16 -
12.09.2019 03:00:00 19,4 14,4 5 3 N 1017,5 16 -
12.09.2019 02:00:00 18,9 16,1 0 0 N 1017,5 16 -
12.09.2019 01:00:00 17,8 16,1 0 0 N 1017,4 16 -
12.09.2019 00:00:00 17,8 16,1 5 3 ENE 1017,5 16 -
11.09.2019 23:00:00 17,8 16,1 5 3 NNW 1017,0 16 -
11.09.2019 22:00:00 18,3 16,7 0 0 N 1016,9 16 -
11.09.2019 21:00:00 19,4 17,2 0 0 N 1016,8 16 -
11.09.2019 20:00:00 20,6 18,3 0 0 N 1016,5 16 -
11.09.2019 19:00:00 24,4 18,3 0 0 N 1015,3 16 -
11.09.2019 18:00:00 27,2 16,7 11 6 W 1015,6 16 -
11.09.2019 17:00:00 27,2 16,7 9 5 WNW 1015,6 16 -
11.09.2019 16:00:00 28,3 16,1 21 11 W 1015,8 16 -
11.09.2019 15:00:00 28,3 17,2 16 9 W 1016,0 16 -
11.09.2019 14:00:00 27,8 17,8 18 10 W 1016,2 16 -
11.09.2019 13:00:00 25,6 18,3 9 5 - 1017,0 16 -
11.09.2019 12:00:00 24,4 18,3 13 7 SW 1017,7 16 -
11.09.2019 11:00:00 23,9 18,9 11 6 SW 1018,2 16 -
11.09.2019 10:00:00 20,0 18,3 5 3 WSW 1019,0 16 0,0
11.09.2019 09:00:00 18,3 17,2 5 3 WSW 1019,4 16 0,0
11.09.2019 08:00:00 16,7 16,1 5 3 W 1019,9 8 0,0
11.09.2019 07:00:00 16,1 15,6 0 0 N 1020,2 10 0,3
11.09.2019 06:00:00 16,1 15,6 0 0 N 1020,2 16 0,0
11.09.2019 05:00:00 16,1 15,6 5 3 NE 1020,1 10 -
11.09.2019 04:00:00 17,2 16,1 0 0 N 1020,1 15 0,0
11.09.2019 03:00:00 17,2 16,1 0 0 N 1020,2 16 0,0
11.09.2019 02:00:00 17,8 16,7 0 0 N 1021,0 16 0,0
11.09.2019 01:00:00 17,8 16,7 5 3 NNW 1021,4 16 0,0
11.09.2019 00:00:00 18,3 16,1 5 3 - 1021,7 16 0,5
10.09.2019 23:00:00 18,3 15,6 8 4 S 1022,2 16 -
10.09.2019 22:00:00 18,3 15,6 9 5 S 1023,0 16 0,0
10.09.2019 21:00:00 18,3 15,6 8 4 SSE 1024,0 16 0,0
10.09.2019 20:00:00 18,9 15,6 5 3 SSW 1024,6 16 -
10.09.2019 19:00:00 19,4 15,6 9 5 S 1024,3 16 -
10.09.2019 18:00:00 20,0 15,6 5 3 - 1024,8 16 -
10.09.2019 17:00:00 21,1 15,0 15 8 S 1024,9 16 -
10.09.2019 16:00:00 21,1 15,0 9 5 S 1025,1 16 -
10.09.2019 15:00:00 21,7 14,4 13 7 SE 1025,8 16 -
10.09.2019 14:00:00 21,7 13,3 13 7 SSE 1026,5 16 -
10.09.2019 13:00:00 21,1 12,2 15 8 SE 1027,0 16 -
10.09.2019 12:00:00 18,9 10,6 13 7 SE 1028,0 16 -
10.09.2019 11:00:00 16,1 9,4 0 0 N 1029,3 16 -
10.09.2019 10:00:00 13,9 8,9 0 0 N 1029,8 16 -
10.09.2019 09:00:00 10,0 8,3 0 0 N 1030,1 16 -
10.09.2019 08:00:00 7,2 7,2 0 0 N 1030,0 10 -
10.09.2019 07:00:00 6,1 6,1 5 3 WSW 1029,9 1,6 -
10.09.2019 06:00:00 6,7 6,1 0 0 N 1029,5 2,8 -
10.09.2019 05:00:00 6,1 5,6 0 0 N 1029,0 8 -
10.09.2019 04:00:00 6,7 5,6 0 0 N 1028,8 16 -
10.09.2019 03:00:00 7,2 6,1 0 0 N 1028,7 16 -
10.09.2019 02:00:00 7,2 6,7 0 0 N 1028,4 16 -
10.09.2019 01:00:00 8,3 7,2 0 0 N 1028,5 16 -
10.09.2019 00:00:00 9,4 7,8 0 0 N 1028,0 16 -
09.09.2019 23:00:00 9,4 8,3 0 0 N 1027,9 16 -
09.09.2019 22:00:00 10,6 8,9 0 0 N 1027,3 16 -
09.09.2019 21:00:00 11,1 9,4 0 0 N 1027,3 16 -
09.09.2019 20:00:00 13,3 10,0 0 0 N 1026,7 16 -
09.09.2019 19:00:00 17,2 9,4 0 0 N 1025,5 16 -
09.09.2019 18:00:00 20,0 7,8 9 5 NW 1025,5 16 -
09.09.2019 17:00:00 20,6 8,9 8 4 - 1025,2 16 -
09.09.2019 16:00:00 20,6 8,3 8 4 N 1025,0 16 -
09.09.2019 15:00:00 20,0 8,9 8 4 - 1024,7 16 -
09.09.2019 14:00:00 20,6 6,7 5 3 - 1024,8 16 -
09.09.2019 13:00:00 19,4 6,1 8 4 - 1025,7 16 -
09.09.2019 12:00:00 18,3 5,6 5 3 NW 1026,0 16 -
09.09.2019 11:00:00 17,8 8,3 0 0 N 1026,6 16 -
09.09.2019 10:00:00 15,0 10,0 0 0 N 1026,9 16 -
09.09.2019 09:00:00 11,1 9,4 0 0 N 1026,8 16 -
09.09.2019 08:00:00 8,3 7,8 0 0 N 1026,5 13 -
09.09.2019 07:00:00 7,2 6,7 0 0 N 1025,9 16 -
09.09.2019 06:00:00 6,7 6,1 0 0 N 1025,2 3,2 -
09.09.2019 05:00:00 6,7 6,1 0 0 N 1024,5 2,4 -
09.09.2019 04:00:00 7,8 6,7 0 0 N 1024,1 16 -

tt = temperature
td = dewpoint
ff = wind speed
dd = wind direction
ppp = reduced air pressure
vv = visibility
rr = precipitation

Next stations